This demonstration page uses our WeatherBlox Daily Observations layout. Learn more.

Left ArrowRight Arrow

Hourly Observations for October 11, 2019

Temp ( °F °C ) Dew Point ( °F °C ) Humidity (%) Winds ( mph kmh ) Pressure ( in mb ) Visibility ( mi km ) Precip ( " mm )
12:53 am 00:53 Clear 61 16.1 58 14.4 90 90 Calm 30.12 1020 10 16 0.00 0.00
1:53 am 01:53 Clear 59 15 57 13.9 93 93 Calm 30.11 1020 10 16 0.00 0.00
2:53 am 02:53 Clear 57 13.9 56 13.3 96 96 Calm 30.10 1019 10 16 0.00 0.00
3:53 am 03:53 Clear 57 13.9 55 12.8 93 93 Calm 30.09 1019 10 16 0.00 0.00
4:53 am 04:53 Clear 56 13.3 55 12.8 97 97 Calm 30.10 1019 10 16 0.00 0.00
5:53 am 05:53 Clear 56 13.3 54 12.2 93 93 Calm 30.11 1020 10 16 0.00 0.00
6:53 am 06:53 Clear 55 12.8 53 11.7 93 93 Calm 30.13 1020 10 16 0.00 0.00
7:53 am 07:53 Sunny 55 12.8 53 11.7 93 93 Calm 30.14 1021 10 16 0.00 0.00
8:53 am 08:53 Sunny 60 15.6 57 13.9 90 90 Calm 30.16 1021 10 16 0.00 0.00
9:53 am 09:53 Sunny 65 18.3 58 14.4 78 78 Calm 30.16 1021 10 16 0.00 0.00
10:53 am 10:53 Sunny 70 21.1 58 14.4 66 66 SE 6 9 30.16 1021 10 16 0.00 0.00
11:53 am 11:53 Mostly Sunny 74 23.3 57 13.9 56 56 Calm 30.14 1021 10 16 0.00 0.00
12:53 pm 12:53 Partly Cloudy 75 23.9 56 13.3 52 52 VRB 5 7 30.13 1020 10 16 0.00 0.00
1:53 pm 13:53 Mostly Sunny 78 25.6 54 12.2 43 43 E 5 7 30.10 1019 10 16 0.00 0.00
2:53 pm 14:53 Sunny 78 25.6 53 11.7 42 42 WSW 5 7 30.06 1018 10 16 0.00 0.00
3:53 pm 15:53 Sunny 79 26.1 52 11.1 39 39 undefined N/A 30.04 1017 10 16 0.00 0.00
4:53 pm 16:53 Sunny 79 26.1 51 10.6 38 38 VRB 3 6 30.03 1017 10 16 0.00 0.00
5:53 pm 17:53 Sunny 79 26.1 52 11.1 39 39 SE 5 7 30.03 1017 10 16 0.00 0.00
6:53 pm 18:53 Sunny 77 25 53 11.7 43 43 Calm 30.04 1017 10 16 0.00 0.00
7:53 pm 19:53 Clear 69 20.6 56 13.3 63 63 Calm 30.05 1018 10 16 0.00 0.00
8:53 pm 20:53 Clear 68 20 57 13.9 68 68 Calm 30.04 1017 10 16 0.00 0.00
9:53 pm 21:53 Clear 65 18.3 56 13.3 73 73 Calm 30.05 1018 10 16 0.00 0.00
10:53 pm 22:53 Clear 62 16.7 57 13.9 84 84 Calm 30.05 1018 10 16 0.00 0.00
11:53 pm 23:53 Clear 63 17.2 57 13.9 81 81 Calm 30.04 1017 10 16 0.00 0.00

Powered by AerisWeather